Flag for Norway Weather past 2 weeks in Mosjøen, Norway

Now
41 °F

Quite cool.


Feels Like: 41 °F
Forecast: 51 / 56 °F
Wind: 1 mph from South

Location: Mosjoen Kjaerstad

Current Time: Sep 19, 2014 at 6:26:42 AM

Latest Report: Sep 19, 2014 at 5:00 AM


Visibility: N/A

Pressure: 30.08 "Hg

Humidity: 96%

Dew point: 40 °F

Location of MosjøenLocation

Historic Weather in Mosjøen — Graph

°F

Mosjøen temperature yesterday

Maximum temperature yesterday: 56 °F (at 4:00 PM)
Minimum temperature yesterday: 38 °F (at 4:00 AM)
Average temperature yesterday: 44 °F

Past Weeks' High & Low Weather Summary

 TemperatureHumidityPressure
High69 °F (Sep 8, 2:00 PM)97% (Sep 13, 6:00 AM)30.55 "Hg (Sep 13, 6:00 AM)
Low32 °F (Sep 15, 6:00 AM)38% (Sep 14, 3:00 PM)29.82 "Hg (Sep 9, 6:00 AM)
Average51 °F85%30.17 "Hg
* Reported Sep 4 5:00 AM — Sep 19 5:00 AM, Mosjøen, Weather by CustomWeather, © 2014

Note: Actual official high and low records may vary slightly from our data, if they occured in-between our weather recording intervals... More about our weather records

Advertising

Mosjøen weather history for previous 24 hours

 ConditionsComfort  
Time TempWeatherWind HumidityBarometerVisibility
5:00 AM
Sep 19
41 °FQuite cool.1 mph96%30.08 "HgN/A
4:00 AM42 °FQuite cool.2 mph96%30.08 "HgN/A
3:00 AM42 °FQuite cool.1 mph96%30.09 "HgN/A
2:00 AM42 °FQuite cool.1 mph96%30.09 "HgN/A
1:00 AM44 °FQuite cool.2 mph95%30.09 "HgN/A
11:00 PM
Sep 18
43 °FQuite cool.No wind94%30.10 "HgN/A
10:00 PM44 °FQuite cool.No wind93%30.11 "HgN/A
9:00 PM47 °FCool.1 mph92%30.11 "HgN/A
8:00 PM48 °FCool.No wind89%30.11 "HgN/A
5:00 PM55 °FCool.3 mph72%30.11 "HgN/A
4:00 PM56 °FCool.2 mph70%30.11 "HgN/A
3:00 PM54 °FCool.3 mph72%30.13 "HgN/A
2:00 PM54 °FCool.1 mph79%30.14 "HgN/A
1:00 PM49 °FCool.2 mph91%30.16 "HgN/A
12:00 PM44 °FQuite cool.1 mph96%30.19 "HgN/A
11:00 AM42 °FQuite cool.2 mph97%30.20 "HgN/A
10:00 AM41 °FQuite cool.1 mph97%30.21 "HgN/A
9:00 AM40 °FChilly.2 mph97%30.21 "HgN/A
8:00 AM39 °FChilly.2 mph97%30.21 "HgN/A
7:00 AM38 °FChilly.1 mph97%30.21 "HgN/A
6:00 AM38 °FChilly.1 mph97%30.21 "HgN/A
Weather by CustomWeather, © 2014

See weather overviewHow to use our weather pages